Regional Weather Roundup
Issued by NWS

Home | Current Version | Previous Version | Text Only | Print | Product List | Glossary On
Versions: 1 2 3 4 5 6 7 8 9 10 11 12 13 14 15 16 17 18 19 20 21 22 23 24 25 26 27 28 29 30 31 32 33 34 35 36 37 38 39 40 41 42 43 44 45 46 47 48 49 50
000
ASUS43 KDTX 272010
RWRMI
MICHIGAN HOURLY REGIONAL WEATHER ROUNDUP
NATIONAL WEATHER SERVICE DETROIT/PONTIAC MI
300 PM EST MON FEB 27 2017

NOTE: "FAIR" INDICATES FEW OR NO CLOUDS BELOW 12,000 FEET WITH NO
SIGNIFICANT WEATHER AND/OR OBSTRUCTION TO VISIBILITY.

MIZ047>049-052>055-059>063-066>070-074>076-081>083-272100-
SOUTHEAST LOWER MICHIGAN

CITY           SKY/WX    TMP DP  RH WIND       PRES   REMARKS
ADRIAN         MOSUNNY   47  33  58 SW9       30.20R
ALMA           SUNNY     47  24  39 S10G20    30.16S
ANN ARBOR      MOSUNNY   50  31  48 MISG      30.17F
BAD AXE        MOSUNNY   44  18  35 SW3       30.18F
CARO           SUNNY     48  20  33 SW5       30.16F
DETROIT CITY   SUNNY     50  28  42 S15       30.18F
DETROIT        MOSUNNY   51  28  41 SW10      30.19S
FLINT          SUNNY     49  30  48 SW13      30.16F
GROSSE ILE     SUNNY     44  31  59 S12       30.19F
HILLSDALE      MOSUNNY   46  32  57 S12       30.16S
HOWELL         SUNNY     50  26  39 S6        30.16S

CITY           SKY/WX    TMP DP  RH WIND       PRES   REMARKS
JACKSON        CLOUDY    49  26  41 SW6       30.15S
LAMBERTVILLE   SUNNY     52  33  49 W7        30.20R
LANSING        MOSUNNY   50  27  40 SW13      30.15F
LAPEER         FAIR      49  26  40 W6        30.16F
MASON          MOSUNNY   51  31  48 S7        30.15F
MONROE         CLOUDY    49  34  56 SW8       30.19R
MT. CLEMENS    MOSUNNY   48  31  50 SE12      30.18S
PONTIAC        PTSUNNY   49  26  41 S8        30.15F
PORT HOPE        N/A     36  31  82 E13       30.18F WCI  27
PORT HURON     PTSUNNY   50  30  46 SW5       30.19S
TRI CITIES     SUNNY     47  23  38 SW8       30.17F
MIDLAND        FAIR      47  18  30 S7        30.15F
TROY           MOSUNNY   52  22  31 S12       30.19S
SAGINAW HB     SUNNY     46  21  36 SW9       30.16F
$$
MIZ043>046-050>051-056>058-064>065-071>073-077>080-272100-
SOUTHWEST LOWER MICHIGAN

CITY           SKY/WX    TMP DP  RH WIND       PRES   REMARKS
BATTLE CREEK   SUNNY     50  31  48 S12       30.14F
BENTON HARBOR  CLOUDY    49  32  52 W9        30.14F
BIG RAPIDS     CLOUDY    45  20  37 SW8G22    30.12F
COLDWATER      PTSUNNY   50  30  45 S6        30.16S
FREMONT        PTSUNNY   47  25  42 S15       30.12F
HOLLAND        SUNNY     50  29  44 SW12      30.15F
GRAND RAPIDS   MOSUNNY   49  29  46 SW13      30.14F
IONIA          PTSUNNY   48  29  48 SW5G12    30.13F
KALAMAZOO      SUNNY     51  28  41 S9        30.15F
LUDINGTON      PTSUNNY   42  28  59 SW9       30.12F
MARSHALL       MOSUNNY   51  28  42 S10       30.14F
MOUNT PLEASANT SUNNY     46  23  39 S6        30.14F
MUSKEGON       PTSUNNY   47  28  47 S16       30.14F
SOUTH HAVEN    MOSUNNY   47  32  55 W8        30.15R
$$
MIZ016>042-272100-
NORTHERN LOWER MICHIGAN

CITY           SKY/WX    TMP DP  RH WIND       PRES   REMARKS
ALPENA         SUNNY     36  26  67 E12       30.16F WCI  28
BEAVER ISLAND  SUNNY     35  22  61 S6        30.13S WCI  30
BELLAIRE       SUNNY     42  21  42 SW5       30.13F
CADILLAC       SUNNY     43  22  43 SW8       30.10S
CHARLEVOIX     SUNNY     36  23  59 N6        30.15F WCI  32
FRANKFORT      SUNNY     39  29  67 SW10      30.12F WCI  32
GAYLORD        SUNNY     40  19  43 W6        30.10F
GRAYLING       SUNNY     42  19  39 S8        30.11F
HARBOR SPRINGS SUNNY     38  19  45 CALM      30.13F
HOUGHTON LAKE  SUNNY     43  20  39 S10       30.12F
MANISTEE       SUNNY     44  21  40 S8        30.12F
OSCODA         SUNNY     40  25  56 S15       30.16F WCI  31
PELLSTON       SUNNY     38  17  42 SW7       30.13F WCI  33
ROGERS CITY    SUNNY     32  23  69 E8        30.17S WCI  25
TRAVERSE CITY  PTSUNNY   45  19  35 S8        30.11F
$$
MIZ007>008-015-272100-
EASTERN UPPER MICHIGAN

CITY           SKY/WX    TMP DP  RH WIND       PRES   REMARKS
KINROSS        CLOUDY    32  17  54 S9        30.13F WCI  24
MACKINAC ISLAN SUNNY     31  19  62 E3        30.14F
NEWBERRY       PTSUNNY   31  19  60 S12       30.09F WCI  22
S. S. MARIE    MOSUNNY   32  15  49 SE8       30.13F WCI  25
MUNISING         N/A     35  21  56 S14G21    30.04F WCI  26
$$
MIZ004>006-011>014-085-272100-
CENTRAL UPPER MICHIGAN

CITY           SKY/WX    TMP DP  RH WIND       PRES   REMARKS
MANISTIQUE     PTSUNNY   31  25  77 SE13      30.10F WCI  22
ESCANABA       SUNNY     35  27  72 S10       30.08F WCI  27
MENOMINEE      SUNNY     39  22  50 S14       30.07F WCI  31
SAWYER-GWINN   PTSUNNY   32  19  59 S13       30.01F WCI  22
$$
MIZ001>003-009>011-084-272100-
WESTERN UPPER MICHIGAN

CITY           SKY/WX    TMP DP  RH WIND       PRES   REMARKS
IRON MOUNTAIN  SUNNY     40  17  39 S13G22    29.98F WCI  32
HOUGHTON       LGT SNOW  27  20  75 SE6       29.97F WCI  20
COPPER HARBOR    N/A     27  22  81 VRB7      30.01F WCI  19
IRONWOOD       MOSUNNY   38  22  52 NW5       29.92F WCI  34
$$

ABBREVIATIONS USED IN REMARKS
   TC - TEMPERATURE IN CELSIUS
  WCI - WIND CHILL INDEX
   HX - HEAT INDEX
  VSB - VISIBILITY




USA.gov is the U.S. government's official web portal to all federal, state and local government web resources and services.